Location: Unspecified
(0.0000°N, 0.0000°E)
Time: 14:47:00
(UTC+00:00)

Explorer 11/Cluster Stage 4 - Pass Details

Date: 28 February 2024
Orbit: 465 x 1219 km, 28.8° (Epoch: 24 April)

Event Time Altitude Azimuth Distance (km) Brightness Sun altitude
Rises 05:45:03 0° 321° (NW) 3,725 9.6 -6.8°
Reaches altitude 10° 05:48:37 10° 335° (NNW) 2,628 9.0 -6.0°
Maximum altitude 05:53:15 21° 23° (NNE) 1,755 8.6 -4.8°
Drops below altitude 10° 05:57:15 10° 72° (ENE) 2,225 10.2 -3.8°
Sets 05:59:58 0° 89° (E) 3,009 12.0 -3.1°
